When you browse on this site, cookies collect data to enhance your experience and personalize the content and advertising you see.
Visit our Privacy Policy to learn more. By continuing to use the site, you agree to this use of cookies and data.
EN

Hourly Weather Szentendre

Today, 14 July, Tuesday

Time Temperature Precipitation Wind Pressure Humidity
00:00 +15°C° 0 mm 1 mps 752 mmHg 71%
01:00 +16°C° 0 mm 2 mps 752 mmHg 65%
02:00 +15°C° 0 mm 2 mps 751 mmHg 64%
03:00 +15°C° 0 mm 1 mps 751 mmHg 63%
04:00 +15°C° 0 mm 1 mps 751 mmHg 63%
05:00 +16°C° 0 mm 1 mps 751 mmHg 63%
06:00 +16°C° 0 mm 1 mps 751 mmHg 62%
07:00 +17°C° 0 mm 2 mps 751 mmHg 62%
08:00 +20°C° 0 mm 1 mps 751 mmHg 58%
09:00 +21°C° 0 mm 1 mps 751 mmHg 54%
10:00 +22°C° 0 mm 1 mps 751 mmHg 49%
11:00 +23°C° 0 mm 1 mps 750 mmHg 48%
12:00 +24°C° 0 mm 1 mps 750 mmHg 46%
13:00 +24°C° 0 mm 1 mps 750 mmHg 44%
14:00 +24°C° 0 mm 1 mps 749 mmHg 45%
15:00 +24°C° 0 mm 1 mps 749 mmHg 45%
16:00 +24°C° 0 mm 1 mps 748 mmHg 46%
17:00 +23°C° 0 mm 1 mps 748 mmHg 51%
18:00 +22°C° 0 mm 1 mps 748 mmHg 56%
19:00 +20°C° 0 mm 1 mps 748 mmHg 61%
20:00 +20°C° 0 mm 1 mps 748 mmHg 63%
21:00 +19°C° 0 mm 1 mps 748 mmHg 65%
22:00 +16°C° 0 mm 0 mps 748 mmHg 67%
23:00 +15°C° 0 mm 0 mps 748 mmHg 69%

Tomorrow, 15 July, Wednesday

Time Temperature Precipitation Wind Pressure Humidity
00:00 +15°C° 0 mm 0 mps 748 mmHg 70%
01:00 +15°C° 0 mm 0 mps 748 mmHg 71%
02:00 +14°C° 0 mm 0 mps 748 mmHg 73%
03:00 +14°C° 0 mm 0 mps 748 mmHg 74%
04:00 +14°C° 0 mm 0 mps 747 mmHg 76%
05:00 +15°C° 0 mm 0 mps 748 mmHg 72%
06:00 +17°C° 0 mm 0 mps 748 mmHg 68%
07:00 +20°C° 0 mm 1 mps 748 mmHg 64%
08:00 +21°C° 0 mm 1 mps 748 mmHg 59%
09:00 +23°C° 0 mm 1 mps 748 mmHg 54%
10:00 +24°C° 0 mm 1 mps 748 mmHg 50%
11:00 +25°C° 0 mm 1 mps 748 mmHg 47%
12:00 +25°C° 0 mm 2 mps 748 mmHg 45%
13:00 +26°C° 0 mm 2 mps 747 mmHg 43%
14:00 +26°C° 0 mm 2 mps 747 mmHg 44%
15:00 +26°C° 0 mm 2 mps 747 mmHg 44%
16:00 +26°C° 0 mm 2 mps 746 mmHg 45%
17:00 +24°C° 0 mm 2 mps 746 mmHg 50%
18:00 +23°C° 0 mm 1 mps 746 mmHg 55%
19:00 +22°C° 0 mm 1 mps 746 mmHg 60%
20:00 +21°C° 0 mm 1 mps 746 mmHg 62%
21:00 +18°C° 0 mm 0 mps 746 mmHg 63%
22:00 +17°C° 0 mm 0 mps 746 mmHg 64%
23:00 +17°C° 0 mm 0 mps 746 mmHg 65%

Day after tomorrow, 16 July, Thursday

Time Temperature Precipitation Wind Pressure Humidity
00:00 +16°C° 0 mm 0 mps 746 mmHg 66%
01:00 +16°C° 0 mm 0 mps 746 mmHg 67%
02:00 +16°C° 0 mm 0 mps 746 mmHg 68%
03:00 +15°C° 0 mm 0 mps 746 mmHg 68%
04:00 +15°C° 0 mm 0 mps 746 mmHg 69%
05:00 +18°C° 0 mm 1 mps 747 mmHg 66%
06:00 +20°C° 0 mm 1 mps 747 mmHg 64%
07:00 +21°C° 0 mm 1 mps 747 mmHg 62%
08:00 +21°C° 0 mm 2 mps 747 mmHg 62%
09:00 +22°C° 0 mm 3 mps 747 mmHg 61%
10:00 +24°C° 0 mm 3 mps 747 mmHg 60%
11:00 +24°C° 0 mm 3 mps 747 mmHg 58%
12:00 +25°C° 0 mm 4 mps 747 mmHg 56%
13:00 +26°C° 0 mm 4 mps 747 mmHg 54%
14:00 +26°C° 0 mm 4 mps 746 mmHg 54%
15:00 +25°C° 0 mm 4 mps 746 mmHg 55%
16:00 +25°C° 0 mm 5 mps 746 mmHg 56%
17:00 +23°C° 0 mm 4 mps 746 mmHg 59%
18:00 +22°C° 0 mm 4 mps 746 mmHg 63%
19:00 +21°C° 0 mm 4 mps 746 mmHg 67%
20:00 +20°C° 0 mm 4 mps 746 mmHg 67%
21:00 +20°C° 0 mm 4 mps 746 mmHg 67%
22:00 +19°C° 0 mm 4 mps 747 mmHg 68%
23:00 +19°C° 0 mm 4 mps 747 mmHg 68%

17 July, Friday

Time Temperature Precipitation Wind Pressure Humidity
00:00 +18°C° 0 mm 3 mps 747 mmHg 69%
01:00 +18°C° 0 mm 3 mps 747 mmHg 70%
02:00 +17°C° 0 mm 3 mps 746 mmHg 72%
03:00 +17°C° 0 mm 3 mps 746 mmHg 74%
04:00 +16°C° 0 mm 2 mps 746 mmHg 76%
05:00 +17°C° 0 mm 2 mps 746 mmHg 75%
06:00 +17°C° 0 mm 2 mps 746 mmHg 75%
07:00 +18°C° 0 mm 2 mps 747 mmHg 74%
08:00 +19°C° 0.1 mm 2 mps 747 mmHg 70%
09:00 +20°C° 0.1 mm 2 mps 747 mmHg 67%
10:00 +21°C° 0.1 mm 2 mps 747 mmHg 63%
11:00 +21°C° 0.4 mm 3 mps 747 mmHg 62%
12:00 +22°C° 0.4 mm 3 mps 747 mmHg 60%
13:00 +22°C° 0.4 mm 3 mps 747 mmHg 59%
14:00 +22°C° 0.3 mm 3 mps 747 mmHg 58%
15:00 +24°C° 0.3 mm 3 mps 746 mmHg 57%
16:00 +24°C° 0.3 mm 2 mps 746 mmHg 56%
17:00 +21°C° 0.2 mm 2 mps 746 mmHg 63%
18:00 +20°C° 0.2 mm 2 mps 746 mmHg 70%
19:00 +20°C° 0.2 mm 1 mps 746 mmHg 76%
20:00 +19°C° 0 mm 1 mps 747 mmHg 79%
21:00 +18°C° 0 mm 1 mps 747 mmHg 81%
22:00 +16°C° 0 mm 1 mps 747 mmHg 83%
23:00 +16°C° 0 mm 1 mps 747 mmHg 84%

18 July, Saturday

Time Temperature Precipitation Wind Pressure Humidity
00:00 +16°C° 0 mm 1 mps 747 mmHg 85%
01:00 +15°C° 0 mm 1 mps 747 mmHg 86%
02:00 +15°C° 0 mm 1 mps 747 mmHg 86%
03:00 +15°C° 0 mm 1 mps 747 mmHg 86%
04:00 +15°C° 0 mm 1 mps 747 mmHg 85%
05:00 +16°C° 0 mm 1 mps 747 mmHg 81%
06:00 +18°C° 0 mm 1 mps 747 mmHg 77%
07:00 +19°C° 0 mm 1 mps 748 mmHg 73%
08:00 +21°C° 0.1 mm 1 mps 747 mmHg 67%
09:00 +22°C° 0.1 mm 1 mps 747 mmHg 60%
10:00 +24°C° 0.1 mm 1 mps 747 mmHg 54%
11:00 +24°C° 0.2 mm 1 mps 747 mmHg 52%
12:00 +25°C° 0.2 mm 1 mps 747 mmHg 50%
13:00 +25°C° 0.2 mm 1 mps 746 mmHg 48%
14:00 +25°C° 0.1 mm 1 mps 746 mmHg 49%
15:00 +25°C° 0.1 mm 1 mps 746 mmHg 51%
16:00 +25°C° 0.1 mm 1 mps 746 mmHg 52%
17:00 +24°C° 0 mm 1 mps 746 mmHg 56%
18:00 +23°C° 0 mm 1 mps 746 mmHg 60%
19:00 +22°C° 0 mm 1 mps 746 mmHg 63%
20:00 +21°C° 0 mm 1 mps 746 mmHg 67%
21:00 +20°C° 0 mm 1 mps 746 mmHg 71%
22:00 +18°C° 0 mm 1 mps 747 mmHg 74%
23:00 +18°C° 0 mm 1 mps 747 mmHg 76%

19 July, Sunday

Time Temperature Precipitation Wind Pressure Humidity
00:00 +18°C° 0 mm 1 mps 747 mmHg 79%
01:00 +16°C° 0 mm 1 mps 747 mmHg 81%
02:00 +16°C° 0 mm 1 mps 747 mmHg 83%
03:00 +15°C° 0 mm 1 mps 747 mmHg 85%
04:00 +15°C° 0 mm 1 mps 747 mmHg 87%
05:00 +16°C° 0 mm 1 mps 747 mmHg 82%
06:00 +18°C° 0 mm 2 mps 747 mmHg 77%
07:00 +19°C° 0 mm 2 mps 747 mmHg 72%
08:00 +20°C° 0 mm 2 mps 747 mmHg 66%
09:00 +22°C° 0 mm 3 mps 747 mmHg 60%
10:00 +25°C° 0 mm 3 mps 747 mmHg 54%
11:00 +25°C° 0 mm 4 mps 747 mmHg 52%
12:00 +26°C° 0 mm 4 mps 747 mmHg 51%
13:00 +26°C° 0 mm 4 mps 746 mmHg 50%
14:00 +26°C° 0 mm 4 mps 746 mmHg 51%
15:00 +27°C° 0 mm 5 mps 746 mmHg 51%
16:00 +27°C° 0 mm 5 mps 746 mmHg 52%
17:00 +26°C° 0 mm 4 mps 746 mmHg 57%
18:00 +24°C° 0 mm 3 mps 746 mmHg 63%
19:00 +23°C° 0 mm 2 mps 746 mmHg 69%
20:00 +21°C° 0 mm 2 mps 746 mmHg 72%
21:00 +20°C° 0 mm 2 mps 747 mmHg 76%
22:00 +20°C° 0 mm 1 mps 747 mmHg 79%
23:00 +20°C° 0 mm 1 mps 747 mmHg 80%
Show more